一网星座-0212星 (ONEWEB-0212 )

导读 | 星芒AI

ONEWEB-0212 是 OneWeb 卫星通信公司发射的低轨通信卫星之一,属于其全球宽带互联网星座计划的一部分。该卫星运行在约 1200 公里的近地轨道,旨在为全球用户提供高速、低延迟的互联网服务,特别是在偏远和农村地区。ONEWEB-0212 采用先进通信技术,支持高频段频谱,具备高容量和高可靠性,助力实现全球数字连接。该星座由数百颗卫星组成,是 OneWeb 打造全球无缝网络战略的重要组成部分。

基本信息
目录编号:
48791
目录名称:
ONEWEB-0212
国际标识:
2021-045AA
轨道中心:
EARTH
卫星名称:
一网星座-0212星
卫星全名:
一网星座-0212星 (ONEWEB-0212 )
卫星状态:
在轨 (已飞行1616 天)
发射日期:
2021-05-28 UTC
国别 :
英国 (GB)
星等 :
--
轨道信息
数据来源 国际轨道数据
星历时间: 2025-10-30T05:47:59+0800
7小时前
查看轨道信息
半长轴: 7579.915km
偏心率: 0.000192
轨道倾角: 87.897°
近地点辐角 89.991°
升交点赤经 305.131°
平近点角 270.144°
近地点: 1200.324km
远地点: 1203.236km
周期: 109.460分钟
每日圈数: 13.155469
详细信息
平衡模式:
三轴稳定
覆盖范围:
全球
运营商:
一网卫星公司
运营商所在国:
英国
制造商(研发单位):
一网卫星公司
制造商所在国:
英国
使用方式:
暂无
卫星简介
OneWeb卫星网络由648颗重约125公斤的微型卫星组成,运行在1200公里的轨道上。 每颗卫星都能够提供至少每秒8千兆位的吞吐量,以使用其高吞吐量的Ku频段有效载荷为家庭和移动平台提供互联网接入。该卫星仍在工作。
2D轨道图
3D轨道图
轨道高度分析图
轨道倾角分析图
轨道综合分析图
查看轨道综合分析图